This is the latest recevied weather packets stored in our database for station/object OE3BCB-14. If no packets are shown the sender has not sent any weather packets the latest 10 day(s).
| Time | Temp. | Humidity | Pressure | Rain* | Wind** | Luminosity | Snow |
|---|---|---|---|---|---|---|---|
| 1777896241 | 33.33° C | 22% | 1015.1 hPa | - | - | 111 W/m² | - |
| 1777895938 | 33.33° C | 23% | 1015.1 hPa | - | - | 113 W/m² | - |
| 1777895636 | 33.89° C | 22% | 1015.1 hPa | - | - | 116 W/m² | - |
| 1777895333 | 33.33° C | 23% | 1015.2 hPa | - | - | 117 W/m² | - |
| 1777895031 | 35° C | 22% | 1015.4 hPa | - | - | 120 W/m² | - |
| 1777894729 | 35.56° C | 23% | 1015.4 hPa | - | - | 134 W/m² | - |
| 1777894426 | 33.89° C | 23% | 1015.5 hPa | - | - | 134 W/m² | - |
| 1777894124 | 34.44° C | 22% | 1015.5 hPa | - | - | 130 W/m² | - |
| 1777893821 | 35° C | 23% | 1015.6 hPa | - | - | 137 W/m² | - |
| 1777893519 | 36.11° C | 22% | 1015.7 hPa | - | - | 137 W/m² | - |
| 1777893216 | 35° C | 23% | 1015.8 hPa | - | - | 140 W/m² | - |
| 1777892914 | 34.44° C | 23% | 1015.8 hPa | - | - | 142 W/m² | - |
| 1777892612 | 35.56° C | 22% | 1015.9 hPa | - | - | 142 W/m² | - |
| 1777892309 | 35.56° C | 24% | 1016 hPa | - | - | 147 W/m² | - |
| 1777892007 | 36.11° C | 24% | 1016.1 hPa | - | - | 146 W/m² | - |
| 1777891704 | 36.67° C | 24% | 1016.1 hPa | - | - | 146 W/m² | - |
| 1777891402 | 35.56° C | 24% | 1016.1 hPa | - | - | 145 W/m² | - |
| 1777891100 | 35° C | 25% | 1016.3 hPa | - | - | 143 W/m² | - |
| 1777890797 | 34.44° C | 24% | 1016.3 hPa | - | - | 149 W/m² | - |
| 1777890495 | 35.56° C | 23% | 1016.3 hPa | - | - | 148 W/m² | - |
| 1777890192 | 35.56° C | 24% | 1016.4 hPa | - | - | 150 W/m² | - |
| 1777889890 | 35.56° C | 25% | 1016.4 hPa | - | - | 152 W/m² | - |
| 1777889588 | 36.11° C | 25% | 1016.5 hPa | - | - | 156 W/m² | - |
| 1777889285 | 36.11° C | 25% | 1016.6 hPa | - | - | 162 W/m² | - |
| 1777888983 | 36.67° C | 25% | 1016.7 hPa | - | - | 174 W/m² | - |
* Rain since midnight (hover to see other rain measurements)
** Current wind speed in m/s (hover to see current wind gust speed)